• Em Portugal
  • Lista de países
  • Para 7 dias
  • Temperatura da água
  • Mapas de satélite
  • Mapa do tempo
  • Widgets de tempo
  • user-avatar
    Iniciar Sessão

    Previsão horária em Aparino

    Hoje, 21 Maio, Segunda-feira

    Tempo Temperatura Precipitação Vento Pressão Humidade
    00:00 +9°C° 0 mm 1 m/s 760 mmHg 71%
    01:00 +9°C° 0 mm 1 m/s 760 mmHg 72%
    02:00 +6°C° 0 mm 0 m/s 760 mmHg 77%
    03:00 +7°C° 0 mm 0 m/s 761 mmHg 76%
    04:00 +7°C° 0 mm 0 m/s 761 mmHg 76%
    05:00 +9°C° 0 mm 1 m/s 761 mmHg 75%
    06:00 +11°C° 0 mm 1 m/s 761 mmHg 68%
    07:00 +14°C° 0 mm 1 m/s 761 mmHg 61%
    08:00 +16°C° 0 mm 1 m/s 762 mmHg 54%
    09:00 +19°C° 0 mm 1 m/s 762 mmHg 49%
    10:00 +19°C° 0 mm 2 m/s 762 mmHg 45%
    11:00 +21°C° 0 mm 2 m/s 761 mmHg 41%
    12:00 +21°C° 0 mm 3 m/s 761 mmHg 40%
    13:00 +22°C° 0 mm 3 m/s 761 mmHg 39%
    14:00 +22°C° 0 mm 3 m/s 761 mmHg 38%
    15:00 +22°C° 0 mm 3 m/s 760 mmHg 40%
    16:00 +22°C° 0 mm 3 m/s 760 mmHg 42%
    17:00 +22°C° 0 mm 3 m/s 760 mmHg 44%
    18:00 +20°C° 0 mm 2 m/s 760 mmHg 53%
    19:00 +17°C° 0 mm 2 m/s 760 mmHg 62%
    20:00 +15°C° 0 mm 2 m/s 760 mmHg 70%
    21:00 +14°C° 0 mm 2 m/s 760 mmHg 72%
    22:00 +13°C° 0 mm 2 m/s 760 mmHg 75%
    23:00 +12°C° 0 mm 1 m/s 760 mmHg 77%

    Amanhã, 22 Maio, Terça-feira

    Tempo Temperatura Precipitação Vento Pressão Humidade
    00:00 +11°C° 0 mm 1 m/s 760 mmHg 78%
    01:00 +11°C° 0 mm 1 m/s 760 mmHg 79%
    02:00 +10°C° 0 mm 1 m/s 761 mmHg 80%
    03:00 +10°C° 0 mm 1 m/s 760 mmHg 79%
    04:00 +11°C° 0 mm 1 m/s 760 mmHg 79%
    05:00 +10°C° 0 mm 2 m/s 760 mmHg 79%
    06:00 +13°C° 0 mm 2 m/s 760 mmHg 73%
    07:00 +15°C° 0 mm 2 m/s 760 mmHg 66%
    08:00 +17°C° 0 mm 3 m/s 760 mmHg 60%
    09:00 +17°C° 0 mm 3 m/s 759 mmHg 59%
    10:00 +17°C° 0 mm 3 m/s 759 mmHg 58%
    11:00 +17°C° 0 mm 4 m/s 758 mmHg 57%
    12:00 +17°C° 0 mm 3 m/s 758 mmHg 59%
    13:00 +17°C° 0 mm 3 m/s 758 mmHg 61%
    14:00 +16°C° 0 mm 3 m/s 758 mmHg 63%
    15:00 +16°C° 0 mm 2 m/s 757 mmHg 67%
    16:00 +16°C° 0 mm 2 m/s 757 mmHg 71%
    17:00 +15°C° 0 mm 2 m/s 757 mmHg 76%
    18:00 +15°C° 0 mm 1 m/s 756 mmHg 80%
    19:00 +14°C° 0 mm 1 m/s 756 mmHg 85%
    20:00 +13°C° 0 mm 1 m/s 756 mmHg 89%
    21:00 +13°C° 0 mm 1 m/s 756 mmHg 91%
    22:00 +12°C° 0 mm 1 m/s 756 mmHg 94%
    23:00 +12°C° 0 mm 1 m/s 756 mmHg 96%

    Depois de amanhã, 23 Maio, Quarta-feira

    Tempo Temperatura Precipitação Vento Pressão Humidade
    00:00 +11°C° 0 mm 1 m/s 756 mmHg 97%
    01:00 +11°C° 0 mm 1 m/s 756 mmHg 97%
    02:00 +11°C° 0 mm 1 m/s 756 mmHg 97%
    03:00 +11°C° 0 mm 1 m/s 756 mmHg 97%
    04:00 +11°C° 0 mm 1 m/s 755 mmHg 97%
    05:00 +11°C° 0 mm 1 m/s 755 mmHg 96%
    06:00 +13°C° 0,1 mm 1 m/s 755 mmHg 90%
    07:00 +15°C° 0,1 mm 1 m/s 755 mmHg 84%
    08:00 +18°C° 0,1 mm 1 m/s 755 mmHg 78%
    09:00 +19°C° 1,2 mm 1 m/s 755 mmHg 76%
    10:00 +19°C° 1,2 mm 2 m/s 755 mmHg 75%
    11:00 +20°C° 1,2 mm 2 m/s 755 mmHg 74%
    12:00 +20°C° 1,6 mm 2 m/s 755 mmHg 73%
    13:00 +20°C° 1,6 mm 2 m/s 755 mmHg 73%
    14:00 +21°C° 1,6 mm 1 m/s 755 mmHg 73%
    15:00 +20°C° 0,3 mm 2 m/s 755 mmHg 71%
    16:00 +20°C° 0,3 mm 2 m/s 755 mmHg 68%
    17:00 +20°C° 0,3 mm 2 m/s 755 mmHg 65%
    18:00 +19°C° 0,1 mm 2 m/s 755 mmHg 73%
    19:00 +17°C° 0,1 mm 2 m/s 755 mmHg 80%
    20:00 +15°C° 0,1 mm 2 m/s 755 mmHg 87%
    21:00 +14°C° 0 mm 2 m/s 756 mmHg 90%
    22:00 +13°C° 0 mm 2 m/s 756 mmHg 92%
    23:00 +12°C° 0 mm 2 m/s 757 mmHg 95%

    24 Maio, Quinta-feira

    Tempo Temperatura Precipitação Vento Pressão Humidade
    00:00 +12°C° 0 mm 2 m/s 757 mmHg 95%
    01:00 +11°C° 0 mm 1 m/s 757 mmHg 96%
    02:00 +11°C° 0 mm 1 m/s 757 mmHg 96%
    03:00 +11°C° 0 mm 1 m/s 758 mmHg 96%
    04:00 +11°C° 0 mm 1 m/s 758 mmHg 95%
    05:00 +11°C° 0 mm 1 m/s 758 mmHg 94%
    06:00 +13°C° 0 mm 1 m/s 758 mmHg 87%
    07:00 +15°C° 0 mm 2 m/s 758 mmHg 80%
    08:00 +17°C° 0 mm 2 m/s 758 mmHg 73%
    09:00 +18°C° 0 mm 2 m/s 758 mmHg 67%
    10:00 +20°C° 0 mm 2 m/s 758 mmHg 61%
    11:00 +21°C° 0 mm 2 m/s 758 mmHg 55%
    12:00 +22°C° 0,1 mm 3 m/s 758 mmHg 54%
    13:00 +22°C° 0,1 mm 3 m/s 758 mmHg 53%
    14:00 +24°C° 0,1 mm 3 m/s 758 mmHg 52%
    15:00 +22°C° 0,2 mm 3 m/s 758 mmHg 57%
    16:00 +22°C° 0,2 mm 3 m/s 758 mmHg 61%
    17:00 +21°C° 0,2 mm 3 m/s 758 mmHg 66%
    18:00 +20°C° 0 mm 3 m/s 758 mmHg 72%
    19:00 +18°C° 0 mm 3 m/s 759 mmHg 77%
    20:00 +17°C° 0 mm 2 m/s 759 mmHg 83%
    21:00 +16°C° 0 mm 3 m/s 760 mmHg 82%
    22:00 +14°C° 0 mm 3 m/s 760 mmHg 80%
    23:00 +13°C° 0 mm 3 m/s 761 mmHg 78%

    25 Maio, Sexta-feira

    Tempo Temperatura Precipitação Vento Pressão Humidade
    00:00 +12°C° 0 mm 3 m/s 761 mmHg 75%
    01:00 +11°C° 0 mm 3 m/s 761 mmHg 72%
    02:00 +10°C° 0 mm 3 m/s 762 mmHg 70%
    03:00 +9°C° 0 mm 3 m/s 762 mmHg 69%
    04:00 +9°C° 0 mm 3 m/s 762 mmHg 69%
    05:00 +8°C° 0 mm 3 m/s 763 mmHg 69%
    06:00 +9°C° 0 mm 3 m/s 763 mmHg 64%
    07:00 +11°C° 0 mm 3 m/s 763 mmHg 59%
    08:00 +12°C° 0 mm 3 m/s 763 mmHg 54%
    09:00 +14°C° 0 mm 3 m/s 763 mmHg 50%
    10:00 +16°C° 0 mm 3 m/s 763 mmHg 46%
    11:00 +17°C° 0 mm 3 m/s 763 mmHg 42%
    12:00 +18°C° 0 mm 3 m/s 763 mmHg 41%
    13:00 +18°C° 0 mm 3 m/s 763 mmHg 40%
    14:00 +19°C° 0 mm 3 m/s 763 mmHg 39%
    15:00 +19°C° 0 mm 3 m/s 763 mmHg 40%
    16:00 +18°C° 0 mm 3 m/s 763 mmHg 42%
    17:00 +18°C° 0 mm 3 m/s 763 mmHg 43%
    18:00 +16°C° 0 mm 3 m/s 763 mmHg 51%
    19:00 +14°C° 0 mm 2 m/s 763 mmHg 59%
    20:00 +13°C° 0 mm 2 m/s 763 mmHg 66%
    21:00 +12°C° 0 mm 2 m/s 763 mmHg 67%
    22:00 +10°C° 0 mm 1 m/s 764 mmHg 68%
    23:00 +9°C° 0 mm 1 m/s 764 mmHg 69%

    26 Maio, Sábado

    Tempo Temperatura Precipitação Vento Pressão Humidade
    00:00 +9°C° 0 mm 1 m/s 764 mmHg 70%
    01:00 +8°C° 0 mm 1 m/s 765 mmHg 71%
    02:00 +8°C° 0 mm 1 m/s 765 mmHg 71%
    03:00 +8°C° 0 mm 1 m/s 765 mmHg 71%
    04:00 +8°C° 0 mm 0 m/s 765 mmHg 71%
    05:00 +8°C° 0 mm 0 m/s 766 mmHg 71%
    06:00 +10°C° 0 mm 0 m/s 766 mmHg 63%
    07:00 +13°C° 0 mm 0 m/s 766 mmHg 55%
    08:00 +16°C° 0 mm 1 m/s 766 mmHg 48%
    09:00 +19°C° 0 mm 1 m/s 766 mmHg 44%
    10:00 +21°C° 0 mm 1 m/s 765 mmHg 40%
    11:00 +22°C° 0 mm 1 m/s 765 mmHg 36%
    12:00 +22°C° 0 mm 1 m/s 765 mmHg 36%
    13:00 +23°C° 0 mm 1 m/s 765 mmHg 35%
    14:00 +23°C° 0 mm 1 m/s 764 mmHg 35%
    15:00 +23°C° 0 mm 1 m/s 764 mmHg 37%
    16:00 +22°C° 0 mm 1 m/s 764 mmHg 39%
    17:00 +22°C° 0 mm 1 m/s 763 mmHg 41%
    18:00 +20°C° 0 mm 1 m/s 763 mmHg 50%
    19:00 +18°C° 0 mm 1 m/s 763 mmHg 58%
    20:00 +15°C° 0 mm 1 m/s 763 mmHg 66%
    21:00 +14°C° 0 mm 1 m/s 763 mmHg 67%
    22:00 +13°C° 0 mm 1 m/s 763 mmHg 69%
    23:00 +12°C° 0 mm 1 m/s 763 mmHg 70%
    Mostrar mais